Location: Allonne
(49.4086°N, 2.1143°E)
Time: 00:07:34
(UTC+00:00)

Lacrosse 4 Rocket - Pass Details

Date: 03 February 2023
Orbit: 535 x 608 km, 68.0° (Epoch: 21 March)

Event Time Altitude Azimuth Distance (km) Brightness Sun altitude
Rises 19:12:09 0° 332° (NNW) 2,862 5.4 -23.2°
Reaches altitude 10° 19:15:49 10° 3° (N) 1,940 4.1 -23.8°
Enters shadow 19:16:00 10° 5° (N) 1,912 4.0 -23.8°
